User: anonymous   Login
Location: Unspecified
(0.0000°N, 0.0000°E)
Time: 23:24:08
(UTC+00:00)
Language:

MUOS 2 - Orbit

View from above orbital plane
View from above orbital plane
View from above satellite
View from above satellite

Ground track
Ground track

The orbit data is extracted from the following two-line orbital elements,

1 39206U 13036A   17342.99576767 0.00000000  00000-0  00000-0 0    09
2 39206   3.4790 336.4470 0052942 359.8184   0.1797  1.00270000    06
Epoch (UTC): 08 December 2017 23:53:54
Eccentricity: 0.0052942
inclination: 3.4790°
perigee height: 35563 km
apogee height: 36010 km
right ascension of ascending node: 336.4470°
argument of perigee: 359.8184°
revolutions per day: 1.00270000
mean anomaly at epoch: 0.1797°
orbit number at epoch: 0

The dashed part of the orbit path shows where the satellite is in the earth's shadow,  

DLR